Regional Weather Roundup
Issued by NWS

Home | Current Version | Previous Version | Graphics & Text | Print | Product List | Glossary On
Versions: 1 2 3 4 5 6 7 8 9 10 11 12 13 14 15 16 17 18 19 20 21 22 23 24 25 26 27 28
000
ASUS45 KTFX 231410
RWRMT
MONTANA REGIONAL WEATHER ROUNDUP
NATIONAL WEATHER SERVICE GREAT FALLS MT
800 AM MDT WED MAY 23 2018

NOTE: "FAIR" INDICATES FEW OR NO CLOUDS BELOW 12000 FEET WITH NO
SIGNIFICANT WEATHER AND/OR OBSTRUCTIONS TO VISIBILITY.

MTZ001>007-043-231500-
WEST OF THE DIVIDE

CITY           SKY/WX    TMP DP  RH WIND       PRES   REMARKS
KALISPELL      FAIR      57  43  59 N8        29.89S
MISSOULA       FAIR      55  49  80 S3        29.90S
BUTTE          FAIR      47  43  86 NE3       29.98S
MULLAN PASS    FAIR      52  38  58 E6        29.96R
ANACONDA         N/A     48  45  87 CALM      29.97S
DEER LODGE       N/A     48  48 100 CALM      29.98R
HAMILTON         N/A     52  46  82 MISG      29.92S
RONAN            N/A     57  48  72 CALM      29.90S
$$

MTZ008-052>055-231500-
SOUTHWEST MONTANA

CITY           SKY/WX    TMP DP  RH WIND       PRES   REMARKS
BOZEMAN        CLOUDY    52  50  93 W5        29.94F
DILLON         CLOUDY    48  45  89 S3        29.96S
ENNIS          CLOUDY    50  46  87 CALM      29.99S
W YELLOWSTONE  LGT RAIN  45  45 100 S7        29.97F
$$

MTZ009-010-012-014-046-048-049-054-231500-
EAST SLOPES AND CENTRAL MONTANA

CITY           SKY/WX    TMP DP  RH WIND       PRES   REMARKS
CUT BANK       FAIR      56  48  74 NW5       29.94F
GREAT FALLS    CLOUDY    55  48  77 SW6       29.94S
MALMSTROM AFB  PTSUNNY   54  50  87 SW3       29.94S
HELENA         FAIR      52  49  89 NW3       29.93F
BOWMANS CRNR   PTSUNNY   50  46  87 SW3       29.94S
CHOTEAU          N/A     54  48  82 W3        29.96F
FAIRFIELD      PTSUNNY   53  47  83 W5        29.94S
POWER          PTSUNNY   53  49  87 CALM      29.93F
RAYNESFORD     PTSUNNY   54  49  82 E3        29.95S
ULM            PTSUNNY   52  48  86 S3        29.94S
WHITE SULPHUR    N/A     46  45  93 CALM      29.97S
$$

MTZ011-013-016-021-045-047-050-051-231500-
NORTH CENTRAL MONTANA

CITY           SKY/WX    TMP DP  RH WIND       PRES   REMARKS
HAVRE          FAIR      58  51  78 CALM      29.90S
LEWISTOWN      CLOUDY    55  53  93 N5        29.94F
N BAR RANCH    PTSUNNY   54  50  87 W6        29.96F
DENTON         PTSUNNY   56  53  91 SW5       29.90F
GEYSER         LGT RAIN  55  50  85 SW3       29.94F
GRASS RANGE    PTSUNNY   56  50  82 W6        29.91F
JUDITH GAP     LGT RAIN  53  51  95 NW6       29.94F
ROY            PTSUNNY   58  54  84 W6        29.91F
STANFORD       LGT RAIN  53  51  94 SW3       29.96S
WINIFRED       PTSUNNY   57  52  83 SW5       29.92F
$$

MTZ017>020-022>027-061-062-231500-
NORTHEAST MONTANA

CITY           SKY/WX    TMP DP  RH WIND       PRES   REMARKS
GLASGOW        FAIR      63  54  72 E5        29.89F
GLENDIVE       LGT RAIN  58  56  93 N6        29.90F
JORDAN           N/A     60  52  74 E5        29.89F
MALTA          SUNNY     61  54  77 VRB5      29.89S
SIDNEY         PTSUNNY   62  57  83 CALM      29.90F THUNDER
WOLF POINT     FAIR      62  53  72 E12       29.91S
PLENTYWOOD       N/A     66  54  63 CALM      29.94S
POPLAR           N/A     63  54  72 E7        29.91F
$$

MTZ028>42-056>058-231500-
SOUTHCENTRAL AND SOUTHEAST MONTANA

CITY           SKY/WX    TMP DP  RH WIND       PRES   REMARKS
BAKER          FAIR      63  58  83 E5        29.90S
BILLINGS       RAIN      56  55  97 N10       29.90F
LIVINGSTON     LGT RAIN  51  50  96 N6        29.93F FOG
MILES CITY     FAIR      62  58  86 E7        29.88S
BIG TIMBER     CLOUDY    52  52 100 CALM      29.94F FOG
FORSYTH          N/A     61  61 100 W6        29.87S
HARLOWTON      LGT RAIN  51  49  95 W10       29.94F
LAUREL           N/A     55  55 100 N7G14     29.91S
$$

REGIONAL REPORTS...DAKOTAS

CITY           SKY/WX    TMP DP  RH WIND       PRES   REMARKS
WILLISTON      PTSUNNY   68  57  68 N6        29.91F
MINOT          PTSUNNY   67  59  75 NE6       29.94F
DICKINSON      FAIR      62  57  83 NE8       29.88F
BEACH          FAIR      63  61  94 E7        29.92F
CROSBY         PTSUNNY   61  54  77 CALM      29.94F
TIOGA          FAIR      68  61  77 SE13      29.96S
WATFORD CITY   FAIR      64  57  77 SE9       29.91S
BISMARCK       FAIR      65  61  87 E7        29.90F
GRAND FORKS    PTSUNNY   69  59  70 S13       30.03R
FARGO          FAIR      70  60  70 S14G24    30.01F
BUFFALO SD       N/A     62  58  86 SE5       29.85R
RAPID CITY     CLOUDY    61  58  90 CALM      29.93S
$$

REGIONAL REPORTS...WYOMING/IDAHO/WASHINGTON

CITY           SKY/WX    TMP DP  RH WIND       PRES   REMARKS
GILLETTE         N/A     57  53  86 MISG      29.96S
SHERIDAN       CLOUDY    58  55  90 CALM      29.94S
BUFFALO WY     PTSUNNY   55  51  86 N5        29.96F
CODY           LGT RAIN  52  48  86 SW6       29.96S
YELLOWSTONE LA   N/A     32  32 100 CALM      30.08S
IDAHO FALLS    LGT RAIN  53  50  89 CALM      29.97R
SALMON         PTSUNNY   48  46  93 NW5       29.94R
BOISE          FAIR      61  51  70 NW5       29.85R
SPOKANE        FAIR      62  49  62 NE7       29.82R
$$

REGIONAL REPORTS...ALBERTA

CITY           SKY/WX    TMP DP  RH WIND       PRES   REMARKS
CALGARY        MOSUNNY   57  43  58 VRB2      29.94S
CARDSTON         N/A     54  46  76 S1          N/A
EDMONTON       SUNNY     66  46  48 S5        29.89S
FORT MCMURRAY  SUNNY     66  43  42 VRB2      29.85S
HIGH LEVEL     PTSUNNY   66  48  52 SE5       29.76F
LETHBRIDGE     MOSUNNY   57  46  67 W6        29.92S
LLOYDMINSTER   MOSUNNY   64  46  52 SE5       29.93S
MEDICINE HAT   MOSUNNY   54  46  76 CALM      29.89F
MILK RIVER       N/A     55  48  76 NW5         N/A
PEACE RIVER    MOSUNNY   66  46  48 NE5       29.82S
PINCHER CREEK    N/A     54  45  71 W10       29.96F
WATERTON GATE    N/A     54  39  58 SW7         N/A
$$

REGIONAL REPORTS...SASKATCHEWAN

CITY           SKY/WX    TMP DP  RH WIND       PRES   REMARKS
CORONACH         N/A     64  50  59 E7          N/A
CYPRESS HILLS    N/A     64  41  42 SE5         N/A
ESTEVAN        MOSUNNY   64  54  68 E9        29.94F
MOOSE JAW        N/A     63  50  63 SE6         N/A
PRINCE ALBERT  MOSUNNY   63  48  59 VRB2      29.98S
REGINA         MOSUNNY   68  50  52 SE8       29.96F
ROCKGLEN         N/A     64  50  59 E2          N/A
SASKATOON      MOSUNNY   68  52  56 SE6       29.95F
SWIFT CURRENT  SUNNY     61  50  67 E10       29.93S
VAL MARIE        N/A     63  48  59 NE5         N/A
$$




USA.gov is the U.S. government's official web portal to all federal, state and local government web resources and services.